• In Uzbekistan
  • List of Countries
  • For 7 days
  • Water Temperature
  • Satellite Maps
  • Weather Map
  • Weather Widgets
  • user-avatar
    Login

    Hourly Weather Musajid

    Today, 18 July, Wednesday

    Time Temperature Precipitation Wind Pressure Humidity
    00:00 +38°C° 0 mm 2 mps 746 mmHg 27%
    01:00 +38°C° 0 mm 3 mps 746 mmHg 27%
    02:00 +38°C° 0 mm 3 mps 746 mmHg 27%
    03:00 +37°C° 0 mm 4 mps 746 mmHg 27%
    04:00 +37°C° 0 mm 4 mps 746 mmHg 28%
    05:00 +37°C° 0 mm 5 mps 746 mmHg 28%
    06:00 +37°C° 0 mm 5 mps 746 mmHg 29%
    07:00 +40°C° 0 mm 6 mps 747 mmHg 26%
    08:00 +42°C° 0 mm 6 mps 747 mmHg 22%
    09:00 +45°C° 0 mm 6 mps 747 mmHg 18%
    10:00 +46°C° 0 mm 6 mps 747 mmHg 17%
    11:00 +47°C° 0 mm 6 mps 747 mmHg 16%
    12:00 +47°C° 0 mm 5 mps 747 mmHg 15%
    13:00 +47°C° 0 mm 5 mps 746 mmHg 15%
    14:00 +47°C° 0 mm 6 mps 746 mmHg 15%
    15:00 +47°C° 0 mm 6 mps 746 mmHg 15%
    16:00 +46°C° 0 mm 5 mps 746 mmHg 17%
    17:00 +45°C° 0 mm 5 mps 746 mmHg 18%
    18:00 +45°C° 0 mm 5 mps 746 mmHg 20%
    19:00 +42°C° 0 mm 4 mps 747 mmHg 23%
    20:00 +40°C° 0 mm 3 mps 747 mmHg 26%
    21:00 +39°C° 0 mm 2 mps 747 mmHg 29%
    22:00 +38°C° 0 mm 2 mps 747 mmHg 29%
    23:00 +38°C° 0 mm 2 mps 747 mmHg 29%

    Tomorrow, 19 July, Thursday

    Time Temperature Precipitation Wind Pressure Humidity
    00:00 +36°C° 0 mm 1 mps 747 mmHg 29%
    01:00 +37°C° 0 mm 2 mps 747 mmHg 29%
    02:00 +36°C° 0 mm 2 mps 747 mmHg 29%
    03:00 +36°C° 0 mm 2 mps 747 mmHg 29%
    04:00 +36°C° 0 mm 3 mps 747 mmHg 28%
    05:00 +37°C° 0 mm 3 mps 747 mmHg 27%
    06:00 +37°C° 0 mm 4 mps 747 mmHg 26%
    07:00 +40°C° 0 mm 4 mps 748 mmHg 24%
    08:00 +42°C° 0 mm 3 mps 748 mmHg 21%
    09:00 +44°C° 0 mm 3 mps 748 mmHg 19%
    10:00 +45°C° 0 mm 3 mps 748 mmHg 18%
    11:00 +46°C° 0 mm 3 mps 748 mmHg 16%
    12:00 +47°C° 0 mm 3 mps 747 mmHg 15%
    13:00 +47°C° 0 mm 3 mps 747 mmHg 15%
    14:00 +47°C° 0 mm 3 mps 747 mmHg 15%
    15:00 +47°C° 0 mm 3 mps 746 mmHg 15%
    16:00 +46°C° 0 mm 3 mps 746 mmHg 17%
    17:00 +45°C° 0 mm 3 mps 746 mmHg 19%
    18:00 +44°C° 0 mm 3 mps 746 mmHg 21%
    19:00 +42°C° 0 mm 3 mps 747 mmHg 26%
    20:00 +40°C° 0 mm 2 mps 747 mmHg 30%
    21:00 +38°C° 0 mm 2 mps 747 mmHg 34%
    22:00 +38°C° 0 mm 2 mps 747 mmHg 34%
    23:00 +38°C° 0 mm 2 mps 747 mmHg 33%

    Day after tomorrow, 20 July, Friday

    Time Temperature Precipitation Wind Pressure Humidity
    00:00 +37°C° 0 mm 2 mps 747 mmHg 33%
    01:00 +37°C° 0 mm 2 mps 746 mmHg 31%
    02:00 +37°C° 0 mm 2 mps 746 mmHg 30%
    03:00 +37°C° 0 mm 3 mps 746 mmHg 29%
    04:00 +37°C° 0 mm 3 mps 746 mmHg 27%
    05:00 +38°C° 0 mm 3 mps 746 mmHg 26%
    06:00 +38°C° 0 mm 3 mps 747 mmHg 25%
    07:00 +39°C° 0 mm 3 mps 747 mmHg 23%
    08:00 +42°C° 0 mm 3 mps 747 mmHg 21%
    09:00 +43°C° 0 mm 2 mps 747 mmHg 20%
    10:00 +45°C° 0 mm 2 mps 747 mmHg 19%
    11:00 +46°C° 0 mm 2 mps 746 mmHg 19%
    12:00 +47°C° 0 mm 2 mps 746 mmHg 18%
    13:00 +47°C° 0 mm 2 mps 746 mmHg 19%
    14:00 +47°C° 0 mm 3 mps 745 mmHg 19%
    15:00 +47°C° 0 mm 3 mps 745 mmHg 19%
    16:00 +46°C° 0 mm 3 mps 745 mmHg 22%
    17:00 +45°C° 0 mm 3 mps 745 mmHg 25%
    18:00 +43°C° 0 mm 3 mps 745 mmHg 27%
    19:00 +42°C° 0 mm 3 mps 745 mmHg 29%
    20:00 +41°C° 0 mm 2 mps 746 mmHg 31%
    21:00 +40°C° 0 mm 1 mps 746 mmHg 33%
    22:00 +39°C° 0 mm 1 mps 746 mmHg 34%
    23:00 +39°C° 0 mm 1 mps 745 mmHg 34%

    21 July, Saturday

    Time Temperature Precipitation Wind Pressure Humidity
    00:00 +37°C° 0 mm 1 mps 745 mmHg 35%
    01:00 +38°C° 0 mm 2 mps 745 mmHg 36%
    02:00 +38°C° 0 mm 3 mps 745 mmHg 37%
    03:00 +38°C° 0 mm 4 mps 744 mmHg 39%
    04:00 +38°C° 0 mm 4 mps 745 mmHg 38%
    05:00 +39°C° 0 mm 5 mps 745 mmHg 37%
    06:00 +39°C° 0 mm 5 mps 745 mmHg 37%
    07:00 +41°C° 0 mm 6 mps 746 mmHg 32%
    08:00 +44°C° 0 mm 7 mps 746 mmHg 27%
    09:00 +46°C° 0 mm 8 mps 746 mmHg 22%
    10:00 +48°C° 0 mm 8 mps 746 mmHg 21%
    11:00 +49°C° 0 mm 8 mps 746 mmHg 19%
    12:00 +49°C° 0 mm 9 mps 745 mmHg 18%
    13:00 +49°C° 0 mm 9 mps 745 mmHg 18%
    14:00 +49°C° 0 mm 9 mps 745 mmHg 18%
    15:00 +48°C° 0 mm 9 mps 745 mmHg 18%
    16:00 +46°C° 0 mm 8 mps 745 mmHg 18%
    17:00 +45°C° 0 mm 8 mps 745 mmHg 19%
    18:00 +45°C° 0 mm 7 mps 745 mmHg 19%
    19:00 +44°C° 0 mm 7 mps 745 mmHg 22%
    20:00 +42°C° 0 mm 6 mps 746 mmHg 24%
    21:00 +41°C° 0 mm 5 mps 746 mmHg 26%
    22:00 +40°C° 0 mm 5 mps 746 mmHg 28%
    23:00 +40°C° 0 mm 5 mps 745 mmHg 29%

    22 July, Sunday

    Time Temperature Precipitation Wind Pressure Humidity
    00:00 +40°C° 0 mm 5 mps 745 mmHg 30%
    01:00 +39°C° 0 mm 5 mps 745 mmHg 31%
    02:00 +39°C° 0 mm 5 mps 745 mmHg 32%
    03:00 +39°C° 0 mm 6 mps 745 mmHg 33%
    04:00 +39°C° 0 mm 6 mps 745 mmHg 34%
    05:00 +39°C° 0 mm 7 mps 745 mmHg 35%
    06:00 +39°C° 0 mm 7 mps 746 mmHg 37%
    07:00 +41°C° 0 mm 8 mps 746 mmHg 32%
    08:00 +44°C° 0 mm 8 mps 746 mmHg 27%
    09:00 +47°C° 0 mm 9 mps 746 mmHg 22%
    10:00 +47°C° 0 mm 9 mps 746 mmHg 20%
    11:00 +48°C° 0 mm 9 mps 746 mmHg 19%
    12:00 +48°C° 0 mm 9 mps 745 mmHg 18%
    13:00 +48°C° 0 mm 9 mps 745 mmHg 17%
    14:00 +48°C° 0 mm 9 mps 745 mmHg 17%
    15:00 +48°C° 0 mm 9 mps 745 mmHg 16%
    16:00 +46°C° 0 mm 8 mps 745 mmHg 17%
    17:00 +45°C° 0 mm 8 mps 745 mmHg 17%
    18:00 +44°C° 0 mm 8 mps 745 mmHg 17%
    19:00 +43°C° 0 mm 7 mps 745 mmHg 20%
    20:00 +41°C° 0 mm 6 mps 746 mmHg 23%
    21:00 +41°C° 0 mm 6 mps 746 mmHg 25%
    22:00 +40°C° 0 mm 6 mps 746 mmHg 27%
    23:00 +40°C° 0 mm 6 mps 745 mmHg 28%

    23 July, Monday

    Time Temperature Precipitation Wind Pressure Humidity
    00:00 +40°C° 0 mm 6 mps 745 mmHg 29%
    01:00 +40°C° 0 mm 6 mps 745 mmHg 31%
    02:00 +39°C° 0 mm 7 mps 745 mmHg 33%
    03:00 +39°C° 0 mm 7 mps 745 mmHg 35%
    04:00 +39°C° 0 mm 7 mps 745 mmHg 36%
    05:00 +39°C° 0 mm 8 mps 745 mmHg 38%
    06:00 +39°C° 0 mm 8 mps 746 mmHg 39%
    07:00 +42°C° 0 mm 9 mps 746 mmHg 32%
    08:00 +45°C° 0 mm 10 mps 746 mmHg 25%
    09:00 +48°C° 0 mm 10 mps 746 mmHg 18%
    10:00 +49°C° 0 mm 11 mps 745 mmHg 17%
    11:00 +49°C° 0 mm 11 mps 745 mmHg 16%
    12:00 +51°C° 0 mm 11 mps 745 mmHg 15%
    13:00 +51°C° 0 mm 11 mps 745 mmHg 15%
    14:00 +51°C° 0 mm 11 mps 745 mmHg 14%
    15:00 +51°C° 0 mm 12 mps 745 mmHg 14%
    16:00 +49°C° 0 mm 11 mps 745 mmHg 15%
    17:00 +48°C° 0 mm 10 mps 745 mmHg 16%
    18:00 +47°C° 0 mm 10 mps 745 mmHg 17%
    19:00 +45°C° 0 mm 9 mps 745 mmHg 19%
    20:00 +44°C° 0 mm 8 mps 745 mmHg 22%
    21:00 +43°C° 0 mm 7 mps 745 mmHg 24%
    22:00 +41°C° 0 mm 7 mps 745 mmHg 26%
    23:00 +41°C° 0 mm 7 mps 745 mmHg 27%
    Show more